SCOUT A DEB, 2226

Orbit data source: Space-Track

SCOUT A DEB, 2226 is space debris in LEO originally from a launch on Wed, 22 Dec 1965 UTC launched from the Air Force Western Test Range (AFWTR). Debris objects in space refer to the collection of defunct objects orbiting the Earth. Examples of debris include non-operational satellites, rocket bodies, and fragments generated from explosions, collisions, or faulty payload assembly.

Loading next visibility...
Identifier
2226, 1965-109D
Orbit
LEO
Country
Flag of USUS
Related business
Manufacturer
Unknown
Mission
Spacecraft
Bus & Motor
Unknown
Mass
Unknown
Launch date (UTC)
1965-12-22 (60 years ago)
Launch vehicle
Unknown
Launch site
Air Force Western Test Range (AFWTR)
Object type
Payload
Rocket body
Debris
Shape & HBR
Unknown shape, 0.1 m
Radar Cross Section
Small (<0.1 m²)

Expand to show TLE details & history
Last TLE update: 20 hours ago

TLE from 20 hours ago
0 SCOUT A DEB
1 02226U 65109D   25303.10406634  .00000286  00000-0  35115-3 0  9994
2 02226  89.0612 328.7890 0247051 350.0220   9.6073 13.51198432922610
Epoch: 2025-10-30T02:29Z
TLE epoch observation values (Epoch: 2025-10-30T02:29:51.331Z)
Latitude
-0.00003°
Longitude
-107.34253°
Altitude
889.53 km
Speed
7.497 km/s
True Right ascension
21h 55m 09s
True Declination
0° 00' 00"
Sunlit
Object was in daylight at epoch
Visualization orbit readout
Latitude
Unknown
Longitude
Unknown
Altitude
Unknown
Speed
Unknown
Apparent Right ascension
Unknown
Apparent Declination
Unknown
Sunlit
N/A
Visualization observer readout
Local Sidereal Time
18:36:10
Azimuth
Unknown
Elevation
Unknown
Doppler factor
Unknown
Orbital elements
Apogee altitude
1,248.781 km
Perigee altitude
881.019 km
Semi-major axis
7,443.037 km
Eccentricity
0.02471
Inclination
89.0612°
RAAN
328.789°
Arg. of periapsis
350.022°
True anomaly
10.09459°
Mean anomaly
9.6073°
Eccentric anomaly
9.84943°
Mean motion
3.38001 °/min
Orbital period
106.51 mins
BSTAR
0.00035115
Loading maneuver chart data...
Computing Atmospheric mass density...
Loading historical data...
Loading historical data...
Loading historical data...
Loading historical data...
Loading historical data...
Loading historical data...
Loading historical data...

Documentation

Showing up to 5 results
|